This demonstration page uses our WeatherBlox Daily Observations layout. Learn more.

Left ArrowRight Arrow

Hourly Observations for April 13, 2021

Temp ( °F °C ) Dew Point ( °F °C ) Humidity (%) Winds ( mph kmh ) Pressure ( in mb ) Visibility ( mi km ) Precip ( " mm )
12:54 am 00:54 Clear 43 6.1 24 -4.4 47 47 NW 7 11 30.2 1023 10 16.0934 0 0
1:54 am 01:54 Clear 40 4.4 24 -4.4 53 53 WNW 3 6 30.21 1023 10 16.0934 0 0
2:54 am 02:54 Clear 35 1.7 24 -4.4 64 64 WSW 5 7 30.22 1023 10 16.0934 0 0
3:54 am 03:54 Clear 34 1.1 23 -5 64 64 Calm 30.21 1023 10 16.0934 0 0
4:54 am 04:54 Clear 36 2.2 23 -5 59 59 W 5 7 30.22 1023 10 16.0934 0 0
5:54 am 05:54 Clear 35 1.7 24 -4.4 64 64 W 9 15 30.23 1024 10 16.0934 0 0
6:54 am 06:54 Sunny 35 1.7 23 -5 61 61 W 7 11 30.24 1024 10 16.0934 0 0
7:54 am 07:54 Sunny 37 2.8 23 -5 57 57 W 9 15 30.27 1025 10 16.0934 0 0
8:54 am 08:54 Sunny 42 5.6 22 -5.6 45 45 NW 15 24 30.28 1026 10 16.0934 0 0
9:54 am 09:54 Sunny 44 6.7 22 -5.6 41 41 WNW 16 26 30.29 1026 10 16.0934 0 0
10:54 am 10:54 Sunny 48 8.9 23 -5 37 37 NW 18 30 30.28 1026 10 16.0934 0 0
11:54 am 11:54 Sunny 50 10 24 -4.4 36 36 NNW 14 22 30.27 1025 10 16.0934 0 0
12:54 pm 12:54 Sunny 51 10.6 24 -4.4 35 35 W 12 19 30.26 1025 10 16.0934 0 0
1:54 pm 13:54 Sunny 54 12.2 25 -3.9 33 33 NW 9 15 30.24 1024 10 16.0934 0 0
2:54 pm 14:54 Sunny 56 13.3 24 -4.4 29 29 WNW 16 26 30.22 1023 10 16.0934 0 0
3:54 pm 15:54 Sunny 57 13.9 23 -5 27 27 NW 15 24 30.2 1023 10 16.0934 0 0
4:54 pm 16:54 Sunny 57 13.9 23 -5 27 27 WNW 16 26 30.18 1022 10 16.0934 0 0
5:54 pm 17:54 Sunny 57 13.9 22 -5.6 26 26 NW 16 26 30.17 1022 10 16.0934 0 0
6:54 pm 18:54 Sunny 56 13.3 22 -5.6 27 27 NW 12 19 30.17 1022 10 16.0934 0 0
7:54 pm 19:54 Sunny 53 11.7 23 -5 31 31 NNW 9 15 30.18 1022 10 16.0934 0 0
8:54 pm 20:54 Clear 42 5.6 24 -4.4 49 49 N 8 13 30.21 1023 10 16.0934 0 0
9:54 pm 21:54 Clear 40 4.4 25 -3.9 55 55 N 9 15 30.22 1024 10 16.0934 0 0
10:54 pm 22:54 Clear 40 4.4 25 -3.9 55 55 N 9 15 30.26 1025 10 16.0934 0 0
11:54 pm 23:54 Clear 38 3.3 25 -3.9 60 60 N 6 9 30.28 1025 10 16.0934 0 0

Powered by AerisWeather